Regional Weather Roundup
Issued by NWS Kansas City/Pleasant Hill, MO

Home | Current Version | Previous Version | Graphics & Text | Print | Product List | Glossary Off
Versions: 1 2 3 4 5 6 7 8 9 10 11 12 13 14 15 16 17 18 19 20 21 22 23 24 25 26 27

000
ASUS43 KEAX 152310
RWREAX

WEATHER ROUNDUP FOR EASTERN KANSAS AND NORTHWEST MISSOURI
NATIONAL WEATHER SERVICE KANSAS CITY/PLEASANT HILL MO
500 PM CST SUN JAN 15 2017

KSZ040-057-103>105-MOZ028-029-037-043-160000-
...KANSAS CITY METROPOLITAN AREA...

CITY           SKY/WX    TMP DP  RH WIND       PRES   REMARKS
K.C. INTL      FRZ DRZL  32  29  88 E10       30.19F FOG     WCI  24
K.C. DOWNTOWN  CLOUDY    33  31  92 NE8       30.20S FOG     WCI  26
LEES SUMMIT    CLOUDY    32  31  96 NE10      30.18F FOG     WCI  24
OLATHE - IXD   CLOUDY    33  32  96 E9        30.17S FOG     WCI  25
OLATHE - OJC   CLOUDY    32  32 100 E9        30.16F FOG     WCI  24
LAWRENCE       CLOUDY    33  32  96 NE8       30.18S FOG     WCI  26

$$

MOZ001>008-011>017-020>025-030>033-038>040-044>046-053-054-160000-
...NORTHERN AND CENTRAL MISSOURI...

CITY           SKY/WX    TMP DP  RH WIND       PRES   REMARKS
ST. JOSEPH     MIX PCPN  32  32 100 E6        30.21F FOG     WCI  26
WARRENSBURG    CLOUDY    32  32 100 NE7       30.20F FOG     WCI  26
WHITEMAN AFB   CLOUDY    34  34 100 NE6       30.19S WCI  29
CLINTON        CLOUDY    36  36 100 E7        30.19S FOG     WCI  30
SEDALIA        CLOUDY    35  34  96 E8        30.21F FOG     WCI  29
WARSAW         NOT AVBL
CHILLICOTHE      N/A     31  30  96 VRB5      30.25F WCI  26
KIRKSVILLE     MIX PCPN  31  29  92 E8        30.26R FOG     WCI  23

$$

MOZ041-047>049-056>058-063>065-088>090-097-160000-
...EASTERN AND SOUTHERN MISSOURI...

CITY           SKY/WX    TMP DP  RH WIND       PRES   REMARKS
ST. LOUIS INTL LGT RAIN  36  33  89 E7        30.27S FOG     WCI  30
SPIRIT OF STL  CLOUDY    35  35 100 E6        30.28S FOG     WCI  30
COLUMBIA       LGT RAIN  34  32  92 E9        30.22F FOG     WCI  27
JEFFERSON CITY CLOUDY    34  33  96 E8        30.25F FOG     WCI  27
ROLLA          CLOUDY    32  32 100 E9        30.20F FOG     WCI  24
OSAGE BEACH    CLOUDY    34  33  96 E8        30.22S WCI  27
SPRINGFIELD    FOG       44  43  96 SE8       30.13F VSB 1
BRANSON        FOG       41  41 100 E6        30.16S VSB 1/8
JOPLIN         FOG       41  41 100 CALM      30.11F VSB 1/4
WEST PLAINS    FOG       40  40 100 E6        30.20S VSB 1/4

$$

IAZ060-094-KSZ022-034>040-054-083-096-NEZ052-066-093-160000-
...KANSAS...SOUTHEAST NEBRASKA AND IOWA...

CITY           SKY/WX    TMP DP  RH WIND       PRES   REMARKS
TOPEKA         LGT RAIN  33  30  88 E5        30.16F FOG     WCI  29
MANHATTAN      LGT RAIN  33  31  92 E7        30.15F FOG     WCI  27
EMPORIA        CLOUDY    32  32 100 E7        30.12F WCI  26
CHANUTE        CLOUDY    36  35  96 E7        30.12F FOG     WCI  30
WICHITA        LGT RAIN  35  34  96 NE7       30.06F WCI  29
OMAHA          FRZ RAIN  31  26  82 E6        30.21F FOG     WCI  25
LINCOLN        FRZ RAIN  31  29  92 E6        30.20S FOG     WCI  25
FALLS CITY     FRZ RAIN  31  30  96 E8        30.18F FOG     WCI  23
LAMONI         CLOUDY    30  28  92 E5        30.21F FOG     WCI  25
DES MOINES     LGT RAIN  34  21  59 SE8       30.24F WCI  27

$$





USA.gov is the U.S. government's official web portal to all federal, state and local government web resources and services.